| time (UTC) | temp F | wind direction | speed MPH | gust MPH | rain 1hr in | rain 24hr in | rain mn in | humidity % | barometer mb |
| 20260510130036 | 57 | 0.0 | 4.0 | 0.00 | 0.32 | 0.00 | 81 | 1012.8 | |
| 20260510123016 | 54 | 0.0 | 1.0 | 0.00 | 0.32 | 0.00 | 83 | 1012.6 | |
| 20260510120016 | 52 | 0.0 | 0.0 | 0.00 | 0.32 | 0.00 | 83 | 1012.4 | |
| 20260510113015 | 51 | 0.0 | 0.0 | 0.00 | 0.33 | 0.00 | 83 | 1012.2 | |
| 20260510110036 | 50 | 0.0 | 1.0 | 0.00 | 0.33 | 0.00 | 83 | 1011.9 | |
| 20260510103015 | 50 | 0.0 | 0.0 | 0.00 | 0.33 | 0.00 | 83 | 1011.5 | |
| 20260510100055 | 50 | 0.0 | 1.0 | 0.00 | 0.33 | 0.00 | 83 | 1011.4 | |
| 20260510093015 | 50 | 0.0 | 1.0 | 0.00 | 0.34 | 0.00 | 83 | 1011.3 | |
| 20260510090016 | 50 | 0.0 | 0.0 | 0.00 | 0.35 | 0.00 | 83 | 1010.8 | |
| 20260510083015 | 50 | 0.0 | 1.0 | 0.00 | 0.35 | 0.00 | 82 | 1011.1 | |
| 20260510080015 | 50 | 0.0 | 1.0 | 0.00 | 0.36 | 0.00 | 82 | 1011.5 | |
| 20260510073036 | 51 | 0.0 | 1.0 | 0.00 | 0.37 | 0.00 | 83 | 1011.9 | |
| 20260510070017 | 51 | 0.0 | 1.0 | 0.00 | 0.39 | 0.00 | 83 | 1012.0 | |
| 20260510063017 | 51 | 0.0 | 1.0 | 0.00 | 0.39 | 0.00 | 82 | 1011.5 | |
| 20260510060018 | 51 | 0.0 | 0.0 | 0.00 | 0.39 | 0.00 | 82 | 1011.4 | |
| 20260510053016 | 51 | 0.0 | 0.0 | 0.00 | 0.39 | 0.00 | 82 | 1011.5 | |
| 20260510050038 | 51 | 0.0 | 0.0 | 0.00 | 0.39 | 0.00 | 82 | 1011.1 | |
| 20260510043040 | 51 | 0.0 | 0.0 | 0.00 | 0.39 | 0.00 | 82 | 1011.1 | |
| 20260510040017 | 51 | 0.0 | 0.0 | 0.00 | 0.39 | 0.39 | 82 | 1011.0 | |
| 20260510033015 | 51 | 0.0 | 1.0 | 0.00 | 0.39 | 0.39 | 82 | 1010.9 | |
| 20260510030015 | 51 | 0.0 | 1.0 | 0.00 | 0.39 | 0.39 | 82 | 1011.2 | |
| 20260510023015 | 50 | 0.0 | 1.0 | 0.00 | 0.39 | 0.39 | 79 | 1011.0 | |
| 20260510020017 | 51 | 0.0 | 0.0 | 0.00 | 0.39 | 0.39 | 79 | 1010.8 | |
| 20260510013017 | 51 | 0.0 | 1.0 | 0.00 | 0.39 | 0.39 | 77 | 1010.9 | |
| 20260510010018 | 52 | 0.0 | 2.0 | 0.00 | 0.39 | 0.39 | 77 | 1010.4 | |
| 20260510003017 | 53 | 0.0 | 3.0 | 0.00 | 0.39 | 0.39 | 77 | 1010.3 | |
| 20260510000037 | 53 | 0.0 | 2.0 | 0.00 | 0.39 | 0.39 | 75 | 1009.7 | |
| 20260509233017 | 55 | 0.0 | 1.0 | 0.00 | 0.39 | 0.39 | 75 | 1009.7 | |
| 20260509230016 | 55 | 0.0 | 2.0 | 0.00 | 0.39 | 0.39 | 76 | 1009.7 | |
| 20260509223017 | 55 | 0.0 | 2.0 | 0.00 | 0.39 | 0.39 | 77 | 1009.5 | |
| 20260509220038 | 55 | 0.0 | 3.0 | 0.00 | 0.39 | 0.39 | 77 | 1009.9 | |
| 20260509213037 | 55 | 0.0 | 2.0 | 0.02 | 0.39 | 0.39 | 77 | 1010.1 | |
| 20260509210017 | 54 | 0.0 | 1.0 | 0.06 | 0.39 | 0.39 | 77 | 1010.0 | |
| 20260509203016 | 54 | 0.0 | 4.0 | 0.09 | 0.37 | 0.37 | 73 | 1010.7 | |
| 20260509200017 | 54 | 0.0 | 3.0 | 0.10 | 0.33 | 0.33 | 72 | 1010.9 | |
| 20260509193016 | 55 | 0.0 | 3.0 | 0.08 | 0.28 | 0.28 | 73 | 1011.4 | |
| 20260509190016 | 56 | 0.0 | 2.0 | 0.06 | 0.23 | 0.23 | 73 | 1011.8 | |
| 20260509183016 | 56 | 0.0 | 1.0 | 0.05 | 0.20 | 0.20 | 71 | 1011.6 | |
| 20260509180017 | 56 | 0.0 | 1.0 | 0.04 | 0.17 | 0.17 | 71 | 1011.4 | |
| 20260509173021 | 56 | 0.0 | 1.0 | 0.03 | 0.15 | 0.15 | 71 | 1011.2 | |
| 20260509170036 | 55 | 0.0 | 1.0 | 0.03 | 0.13 | 0.13 | 71 | 1011.5 | |
| 20260509163016 | 54 | 0.0 | 1.0 | 0.04 | 0.12 | 0.12 | 71 | 1011.7 | |
| 20260509160016 | 54 | 0.0 | 2.0 | 0.02 | 0.10 | 0.10 | 71 | 1012.3 | |
| 20260509153017 | 53 | 0.0 | 1.0 | 0.00 | 0.08 | 0.08 | 70 | 1012.6 | |
| 20260509150016 | 53 | 0.0 | 1.0 | 0.00 | 0.08 | 0.08 | 70 | 1012.3 | |
| 20260509143015 | 51 | 0.0 | 1.0 | 0.01 | 0.08 | 0.08 | 73 | 1012.6 | |
| 20260509140015 | 50 | 0.0 | 1.0 | 0.01 | 0.08 | 0.08 | 77 | 1012.7 | |
| 20260509133037 | 48 | 0.0 | 1.0 | 0.00 | 0.07 | 0.07 | 76 | 1012.8 |